Regional Weather Roundup
Issued by NWS

Home | Current Version | Previous Version | Graphics & Text | Print | Product List | Glossary On
Versions: 1 2 3 4 5 6 7 8 9 10 11 12 13 14 15 16 17 18 19 20 21 22 23 24 25 26 27 28 29 30 31 32 33 34 35 36 37 38 39 40 41 42 43 44 45 46 47 48 49 50
000
ASUS43 KIND 011409
RWRIN

WEATHER ROUNDUP FOR INDIANA
NATIONAL WEATHER SERVICE INDIANAPOLIS IN
1000 AM EDT TUE SEP 01 2015

NOTE: "FAIR" INDICATES FEW OR NO CLOUDS BELOW 12,000 FEET WITH NO
SIGNIFICANT WEATHER AND/OR OBSTRUCTIONS TO VISIBILITY.

* - STATION DOES NOT REPORT WEATHER SUCH AS PRECIPITATION OR FOG.

+ - STATION NOT QUALITY CONTROLLED BY THE NATIONAL WEATHER SERVICE.
    USE DATA WITH CAUTION...ESPECIALLY DEWPOINT AND RELATIVE
    HUMIDITY OBSERVATIONS.

INZ001>003-010>013-019-020-011500-
NORTHWEST INDIANA

CITY           SKY/WX    TMP DP  RH WIND       PRES   REMARKS
GARY /AIRPORT/ MOSUNNY   77  70  78 SW7       30.07F
KNOX *+        SUNNY     73  70  88 SW7       30.09F
LA PORTE +     SUNNY    N/A N/A N/A S3        30.10F
MICHIGAN CITY+ SUNNY     75  72  88 S7        30.09S
MONTICELLO +   PTSUNNY   74  72  93 SW6       30.10S
RENSSELAER +   SUNNY     75  72  88 S6        30.09F
VALPARAISO     SUNNY     75  70  84 S6        30.10S

$$

LMZ046-743>745-011500-
SOUTHERN LAKE MICHIGAN

STATION/POSITION TIME  TEMP    WIND        PRES    WAVE
                       AIR SEA DIR/SP/G            HT
                 (UTC) (F)     (DEG/KT/KT) (MB)    (FT)
BURNS HARBOR     1300   74     180/  8/ 13 1018.6S
MICHIGAN CITY    1300   73     130/  8/  9   N/A
5NW MICH CITY    1400   73 72  190/  6/  8   N/A     1

$$

INZ004-005-014>016-021>024-011500-
NORTH CENTRAL INDIANA

CITY           SKY/WX    TMP DP  RH WIND       PRES   REMARKS
ELKHART        SUNNY     77  72  83 SW6       30.11F
GOSHEN         SUNNY     76  70  82 SW6       30.11S
LOGANSPORT +   MOSUNNY   77  64  65 SW9       30.12S
PERU/GRISSOM   MOSUNNY   78  70  76 SW8       30.11S
ROCHESTER +    SUNNY     79  72  78 SW6       30.11F
SOUTH BEND     MOSUNNY   76  70  82 SW8       30.10F
WARSAW +       SUNNY     75  70  83 SW3       30.11F

$$

INZ006>009-017-018-025>027-011500-
NORTHEAST INDIANA

CITY           SKY/WX    TMP DP  RH WIND       PRES   REMARKS
ANGOLA *+      SUNNY     79  72  78 CALM      30.12S
AUBURN +       SUNNY     77  68  73 CALM      30.13S
FORT WAYNE     MOSUNNY   77  69  76 SW6       30.13S
HUNTINGTON +   SUNNY     76  66  72 SW5       30.12F

$$

INZ028-029-035-036-043>045-051>053-011500-
WEST CENTRAL INDIANA

CITY           SKY/WX    TMP DP  RH WIND       PRES   REMARKS
CRAWFORDSVL +  MOSUNNY   75  67  76 SW7       30.13R
GREENCASTLE +  MOSUNNY   73  64  73 CALM      30.15R
LAFAYETTE      MOSUNNY   75  68  78 SW7       30.10F
TERRE HAUTE    PTSUNNY   77  68  73 SW13      30.14R

$$

INZ030>032-037>040-046>048-054>057-064-065-011500-
CENTRAL INDIANA

CITY           SKY/WX    TMP DP  RH WIND       PRES   REMARKS
ANDERSON       SUNNY     77  64  65 SW6       30.15F
COLUMBUS       SUNNY     75  66  73 S5        30.15S
FRANKFORT +    SUNNY     76  76 100 S7        30.14S
GREENWOOD *+   MOSUNNY   77  66  69 SW5       30.15S
INDIANAPOLIS   PTSUNNY   76  67  73 SW7       30.14R
-EAGLE CREEK   MOSUNNY   77  69  76 SW6       30.13S
KOKOMO *+      SUNNY     79  70  73 SW8       30.12S
MARION +       SUNNY     74  64  70 S3        30.14S
MT COMFORT *+  SUNNY     77  72  83 SW5       30.14S
SHELBYVILLE    SUNNY     78  69  73 S6        30.14S
ZIONSVILLE +   SUNNY     77  69  75 SW5       30.14S

$$

INZ033-034-041-042-049-050-058-059-011500-
EAST CENTRAL INDIANA

CITY           SKY/WX    TMP DP  RH WIND       PRES   REMARKS
MUNCIE         SUNNY     76  69  79 SW5       30.14S

$$

INZ060-061-067>069-081>083-085>088-011500-
SOUTHWEST INDIANA

CITY           SKY/WX    TMP DP  RH WIND       PRES   REMARKS
EVANSVILLE     SUNNY     78  68  71 CALM      30.14S
HUNTINGBURG *+ SUNNY     75  68  78 S7        30.15S
WASHINGTON +   MOSUNNY   77  67  70 CALM      30.14R

$$

INZ062-063-066-070>080-084-089>092-011500-
SOUTH CENTRAL AND SOUTHEAST INDIANA

CITY           SKY/WX    TMP DP  RH WIND       PRES   REMARKS
BLOOMINGTON    MOSUNNY   76  68  76 W6        30.15S
MADISON *+     SUNNY     75  68  78 CALM      30.18S
NORTH VERNON + SUNNY     75  73  94 CALM      30.16S
SEYMOUR +      SUNNY     77  68  73 CALM      30.14S

$$




USA.gov is the U.S. government's official web portal to all federal, state and local government web resources and services.